time, Switch, Flow(0), Analog(2)
yyyy/mm/dd HH:MM:SS.fff, True=FILTERED|False=TOTAL, L/min, V
2023/07/03 02:00:00.737, True, 4.378, 0.129778
2023/07/03 02:00:01.233, True, 4.379, 0.130770
2023/07/03 02:00:01.738, True, 4.319, 0.131304
2023/07/03 02:00:02.241, True, 4.309, 0.132906
2023/07/03 02:00:02.737, True, 4.043, 0.131304
2023/07/03 02:00:03.241, True, 4.305, 0.130922
2023/07/03 02:00:03.745, True, 3.652, 0.129854
2023/07/03 02:00:04.242, True, 2.360, 0.130617
2023/07/03 02:00:04.745, True, 1.324, 0.131533
2023/07/03 02:00:05.250, True, 0.995, 0.130465
2023/07/03 02:00:05.746, True, 1.012, 0.129931
2023/07/03 02:00:06.250, True, 0.994, 0.131380
2023/07/03 02:00:06.746, True, 0.674, 0.129244
2023/07/03 02:00:07.249, True, 0.995, 0.130999
2023/07/03 02:00:07.753, True, 0.995, 0.133288
2023/07/03 02:00:08.258, True, 0.994, 0.132830
2023/07/03 02:00:08.753, True, 1.013, 0.132601
2023/07/03 02:00:09.258, True, 0.662, 0.130999
2023/07/03 02:00:09.761, True, 0.994, 0.131075
2023/07/03 02:00:10.266, True, 0.995, 0.132906
2023/07/03 02:00:10.761, True, 0.674, 0.130999
2023/07/03 02:00:11.266, True, 0.995, 0.129397
2023/07/03 02:00:11.770, True, 0.995, 0.130312
2023/07/03 02:00:12.265, True, 0.674, 0.129091
2023/07/03 02:00:12.770, True, 0.995, 0.132601
2023/07/03 02:00:13.274, True, 0.994, 0.130922
2023/07/03 02:00:13.770, True, 0.674, 0.129244
2023/07/03 02:00:14.274, True, 0.995, 0.130083
2023/07/03 02:00:14.778, True, 0.995, 0.130694
2023/07/03 02:00:15.274, True, 0.674, 0.129702
2023/07/03 02:00:15.778, True, 0.995, 0.130388
2023/07/03 02:00:16.282, True, 0.996, 0.132296
2023/07/03 02:00:16.777, True, 1.009, 0.130388
2023/07/03 02:00:17.282, True, 0.996, 0.130541
2023/07/03 02:00:17.785, True, 0.662, 0.131914
2023/07/03 02:00:18.282, True, 1.011, 0.129015
2023/07/03 02:00:18.786, True, 0.995, 0.129931
2023/07/03 02:00:19.290, True, 0.995, 0.130694
2023/07/03 02:00:19.794, True, 0.663, 0.130846
2023/07/03 02:00:20.290, True, 1.011, 0.130617
2023/07/03 02:00:20.794, True, 0.995, 0.130770
2023/07/03 02:00:21.297, True, 0.995, 0.130083
2023/07/03 02:00:21.794, True, 0.674, 0.128099
2023/07/03 02:00:22.298, True, 0.995, 0.129015
2023/07/03 02:00:22.802, True, 0.995, 0.130236
2023/07/03 02:00:23.298, True, 0.674, 0.130541
2023/07/03 02:00:23.802, True, 0.995, 0.132525
2023/07/03 02:00:24.306, True, 0.995, 0.130541
2023/07/03 02:00:24.801, True, 1.011, 0.132372
2023/07/03 02:00:25.306, True, 0.663, 0.130922
2023/07/03 02:00:25.810, True, 0.995, 0.131456
2023/07/03 02:00:26.306, True, 1.011, 0.131914
2023/07/03 02:00:26.810, True, 0.995, 0.127794
2023/07/03 02:00:27.314, True, 0.663, 0.129778
2023/07/03 02:00:27.810, True, 1.011, 0.131304
2023/07/03 02:00:28.314, True, 0.663, 0.130694
2023/07/03 02:00:28.809, True, 1.012, 0.127871
2023/07/03 02:00:29.314, True, 0.994, 0.132753
2023/07/03 02:00:29.818, True, 0.663, 0.131914
2023/07/03 02:00:30.314, True, 1.011, 0.130083
2023/07/03 02:00:30.818, True, 0.995, 0.131533
2023/07/03 02:00:31.322, True, 0.995, 0.132067
2023/07/03 02:00:31.818, True, 0.674, 0.131304
2023/07/03 02:00:32.321, True, 0.995, 0.130465
2023/07/03 02:00:32.826, True, 0.663, 0.130312
2023/07/03 02:00:33.322, True, 1.011, 0.130617
2023/07/03 02:00:33.826, True, 0.995, 0.130465
2023/07/03 02:00:34.329, True, 0.663, 0.130617
2023/07/03 02:00:34.826, True, 1.011, 0.130694
2023/07/03 02:00:35.330, True, 0.995, 0.130007
2023/07/03 02:00:35.834, True, 0.663, 0.130159
2023/07/03 02:00:36.329, True, 1.011, 0.134432
2023/07/03 02:00:36.834, True, 0.995, 0.129549
2023/07/03 02:00:37.337, True, 0.997, 0.129702
2023/07/03 02:00:37.834, True, 0.672, 0.129931
2023/07/03 02:00:38.338, True, 0.995, 0.130465
2023/07/03 02:00:38.842, True, 0.995, 0.131151
2023/07/03 02:00:39.338, True, 1.011, 0.129854
2023/07/03 02:00:39.842, True, 0.663, 0.131075
2023/07/03 02:00:40.346, True, 0.995, 0.130236
2023/07/03 02:00:40.842, True, 1.012, 0.129244
2023/07/03 02:00:41.346, True, 0.993, 0.131075
2023/07/03 02:00:41.850, True, 0.995, 0.130617
2023/07/03 02:00:42.346, True, 0.674, 0.131533
2023/07/03 02:00:42.850, True, 0.995, 0.131304
2023/07/03 02:00:43.346, True, 1.011, 0.131991
2023/07/03 02:00:43.850, True, 0.995, 0.130999
2023/07/03 02:00:44.354, True, 0.663, 0.131456
2023/07/03 02:00:44.850, True, 1.011, 0.131380
2023/07/03 02:00:45.354, True, 0.663, 0.128634
2023/07/03 02:00:45.858, True, 0.995, 0.130770
2023/07/03 02:00:46.354, True, 1.011, 0.131304
2023/07/03 02:00:46.858, True, 0.663, 0.130770
2023/07/03 02:00:47.354, True, 1.011, 0.132753
2023/07/03 02:00:47.858, True, 0.996, 0.130083
2023/07/03 02:00:48.362, True, 0.994, 0.129397
2023/07/03 02:00:48.858, True, 0.674, 0.131609
2023/07/03 02:00:49.362, True, 0.995, 0.131914
2023/07/03 02:00:49.866, True, 0.995, 0.131075
2023/07/03 02:00:50.362, True, 1.011, 0.131380
2023/07/03 02:00:50.866, True, 0.995, 0.131609
2023/07/03 02:00:51.370, True, 0.995, 0.129473
2023/07/03 02:00:51.866, True, 0.674, 0.129015
2023/07/03 02:00:52.370, True, 0.995, 0.131685
2023/07/03 02:00:52.874, True, 0.995, 0.131228
2023/07/03 02:00:53.370, True, 1.011, 0.130007
2023/07/03 02:00:53.874, True, 0.663, 0.128939
2023/07/03 02:00:54.370, True, 1.013, 0.129244
2023/07/03 02:00:54.874, True, 0.994, 0.128405
2023/07/03 02:00:55.378, True, 0.663, 0.130541
2023/07/03 02:00:55.882, True, 0.995, 0.132143
2023/07/03 02:00:56.378, True, 1.011, 0.130083
2023/07/03 02:00:56.882, True, 0.995, 0.129015
2023/07/03 02:00:57.378, True, 0.674, 0.127489
2023/07/03 02:00:57.882, True, 0.995, 0.129473
2023/07/03 02:00:58.385, True, 0.994, 0.130541
2023/07/03 02:00:58.882, True, 1.011, 0.129702
2023/07/03 02:00:59.386, True, 0.995, 0.132219
2023/07/03 02:00:59.889, True, 0.663, 0.130083
2023/07/03 02:01:00.385, True, 1.011, 0.132601
2023/07/03 02:01:00.890, True, 0.995, 0.131838
2023/07/03 02:01:01.393, True, 0.994, 0.130999
2023/07/03 02:01:01.889, True, 0.674, 0.130922
2023/07/03 02:01:02.394, True, 0.996, 0.131685
2023/07/03 02:01:02.897, True, 0.994, 0.129778
2023/07/03 02:01:03.402, True, 0.664, 0.132677
2023/07/03 02:01:03.898, True, 1.011, 0.133745
2023/07/03 02:01:04.401, True, 0.995, 0.131380
2023/07/03 02:01:04.906, True, 0.995, 0.133059
2023/07/03 02:01:05.402, True, 0.674, 0.133288
2023/07/03 02:01:05.905, True, 0.994, 0.130846
2023/07/03 02:01:06.410, True, 0.996, 0.130846
2023/07/03 02:01:06.906, True, 1.011, 0.130465
2023/07/03 02:01:07.409, True, 0.662, 0.134051
2023/07/03 02:01:07.914, True, 0.996, 0.130846
2023/07/03 02:01:08.410, True, 1.009, 0.131151
2023/07/03 02:01:08.913, True, 0.663, 0.133593
2023/07/03 02:01:09.409, True, 1.012, 0.131762
2023/07/03 02:01:09.914, True, 0.994, 0.132372
2023/07/03 02:01:10.417, True, 0.663, 0.130999
2023/07/03 02:01:10.914, True, 1.011, 0.133288
2023/07/03 02:01:11.418, True, 0.995, 0.132753
2023/07/03 02:01:11.914, True, 0.674, 0.131380
2023/07/03 02:01:12.418, True, 0.995, 0.133211
2023/07/03 02:01:12.922, True, 0.995, 0.133822
2023/07/03 02:01:13.418, True, 1.013, 0.133135
2023/07/03 02:01:13.922, True, 0.662, 0.132143
2023/07/03 02:01:14.426, True, 0.995, 0.132830
2023/07/03 02:01:14.922, True, 1.011, 0.134737
2023/07/03 02:01:15.426, True, 0.663, 0.133364
2023/07/03 02:01:15.930, True, 0.995, 0.133974
2023/07/03 02:01:16.426, True, 1.010, 0.131533
2023/07/03 02:01:16.930, True, 0.663, 0.132448
2023/07/03 02:01:17.434, True, 0.995, 0.134585
2023/07/03 02:01:17.929, True, 1.011, 0.134966
2023/07/03 02:01:18.434, True, 0.995, 0.134051
2023/07/03 02:01:18.938, True, 0.664, 0.133974
2023/07/03 02:01:19.433, True, 1.010, 0.135271
2023/07/03 02:01:19.938, True, 0.663, 0.132906
2023/07/03 02:01:20.441, True, 0.995, 0.133364
2023/07/03 02:01:20.938, True, 1.011, 0.135195
2023/07/03 02:01:21.442, True, 0.663, 0.136263
2023/07/03 02:01:21.945, True, 0.995, 0.133059
2023/07/03 02:01:22.442, True, 1.011, 0.132601
2023/07/03 02:01:22.945, True, 0.995, 0.135576
2023/07/03 02:01:23.449, True, 0.996, 0.134127
2023/07/03 02:01:23.953, True, 0.663, 0.133822
2023/07/03 02:01:24.449, True, 1.010, 0.135195
2023/07/03 02:01:24.954, True, 0.995, 0.134203
2023/07/03 02:01:25.449, True, 1.011, 0.135729
2023/07/03 02:01:25.954, True, 0.995, 0.133669
2023/07/03 02:01:26.458, True, 0.663, 0.135119
2023/07/03 02:01:26.954, True, 1.011, 0.134890
2023/07/03 02:01:27.458, True, 0.995, 0.135424
2023/07/03 02:01:27.961, True, 0.663, 0.135882
2023/07/03 02:01:28.458, True, 1.011, 0.137026
2023/07/03 02:01:28.962, True, 0.995, 0.137560
2023/07/03 02:01:29.465, True, 0.995, 0.137865
2023/07/03 02:01:29.962, True, 0.674, 0.134813
2023/07/03 02:01:30.465, True, 0.995, 0.135805
2023/07/03 02:01:30.970, True, 0.995, 0.135348
2023/07/03 02:01:31.465, True, 0.674, 0.135500
2023/07/03 02:01:31.970, True, 0.994, 0.134356
2023/07/03 02:01:32.473, True, 0.664, 0.136034
2023/07/03 02:01:32.969, True, 1.009, 0.136568
2023/07/03 02:01:33.474, True, 0.995, 0.136110
2023/07/03 02:01:33.977, True, 0.663, 0.136797
2023/07/03 02:01:34.473, True, 1.011, 0.134127
2023/07/03 02:01:34.977, True, 0.994, 0.135882
2023/07/03 02:01:35.481, True, 0.995, 0.135805
2023/07/03 02:01:35.977, True, 1.011, 0.135424
2023/07/03 02:01:36.481, True, 0.663, 0.134051
2023/07/03 02:01:36.986, True, 0.996, 0.136721
2023/07/03 02:01:37.481, True, 1.012, 0.135576
2023/07/03 02:01:37.985, True, 0.993, 0.136721
2023/07/03 02:01:38.489, True, 0.664, 0.135271
2023/07/03 02:01:38.986, True, 1.011, 0.136416
2023/07/03 02:01:39.490, True, 0.662, 0.137407
2023/07/03 02:01:39.986, True, 1.011, 0.137407
2023/07/03 02:01:40.490, True, 0.996, 0.137331
2023/07/03 02:01:40.994, True, 0.662, 0.136110
2023/07/03 02:01:41.497, True, 0.996, 0.136645
2023/07/03 02:01:41.994, True, 1.012, 0.135882
2023/07/03 02:01:42.497, True, 0.663, 0.138170
2023/07/03 02:01:43.001, True, 0.994, 0.137026
2023/07/03 02:01:43.506, True, 0.997, 0.138323
2023/07/03 02:01:44.002, True, 0.674, 0.135958
2023/07/03 02:01:44.506, True, 0.995, 0.136797
2023/07/03 02:01:45.010, True, 0.994, 0.138170
2023/07/03 02:01:45.506, True, 1.011, 0.137484
2023/07/03 02:01:46.009, True, 0.995, 0.137179
2023/07/03 02:01:46.514, True, 0.993, 0.137636
2023/07/03 02:01:47.018, True, 0.663, 0.138170
2023/07/03 02:01:47.514, True, 1.013, 0.137484
2023/07/03 02:01:48.018, True, 0.993, 0.137102
2023/07/03 02:01:48.522, True, 0.995, 0.135882
2023/07/03 02:01:49.018, True, 0.673, 0.137331
2023/07/03 02:01:49.522, True, 0.995, 0.135500
2023/07/03 02:01:50.018, True, 1.011, 0.135348
2023/07/03 02:01:50.522, True, 0.995, 0.136873
2023/07/03 02:01:51.026, True, 0.663, 0.135805
2023/07/03 02:01:51.522, True, 1.011, 0.136797
2023/07/03 02:01:52.026, True, 0.994, 0.136187
2023/07/03 02:01:52.530, True, 0.995, 0.136339
2023/07/03 02:01:53.026, True, 0.674, 0.135653
2023/07/03 02:01:53.529, True, 0.995, 0.137102
2023/07/03 02:01:54.034, True, 0.995, 0.138094
2023/07/03 02:01:54.530, True, 0.674, 0.138857
2023/07/03 02:01:55.034, True, 0.995, 0.138247
2023/07/03 02:01:55.530, True, 1.011, 0.136721
2023/07/03 02:01:56.034, True, 0.994, 0.137026
2023/07/03 02:01:56.538, True, 0.663, 0.135958
2023/07/03 02:01:57.034, True, 1.012, 0.137636
2023/07/03 02:01:57.538, True, 0.994, 0.135805
2023/07/03 02:01:58.042, True, 0.995, 0.138018
2023/07/03 02:01:58.538, True, 1.011, 0.136797
2023/07/03 02:01:59.042, True, 0.995, 0.138399
2023/07/03 02:01:59.546, True, 0.995, 0.138170
2023/07/03 02:02:00.050, True, 0.995, 0.138628
2023/07/03 02:02:00.546, True, 1.011, 0.137713
2023/07/03 02:02:01.050, True, 0.663, 0.137560
2023/07/03 02:02:01.546, True, 1.011, 0.136034
2023/07/03 02:02:02.050, True, 0.995, 0.135653
2023/07/03 02:02:02.553, True, 0.664, 0.136645
2023/07/03 02:02:03.050, True, 1.010, 0.135958
2023/07/03 02:02:03.554, True, 0.995, 0.137713
2023/07/03 02:02:04.058, True, 0.995, 0.137789
2023/07/03 02:02:04.554, True, 0.674, 0.136797
2023/07/03 02:02:05.058, True, 0.994, 0.137636
2023/07/03 02:02:05.562, True, 0.996, 0.136339
2023/07/03 02:02:06.058, True, 0.674, 0.138247
2023/07/03 02:02:06.562, True, 0.994, 0.138094
2023/07/03 02:02:07.066, True, 0.995, 0.135653
2023/07/03 02:02:07.562, True, 1.011, 0.138018
2023/07/03 02:02:08.066, True, 0.995, 0.138323
2023/07/03 02:02:08.570, True, 0.664, 0.136950
2023/07/03 02:02:09.066, True, 1.010, 0.137255
2023/07/03 02:02:09.570, True, 0.996, 0.137255
2023/07/03 02:02:10.066, True, 1.010, 0.138170
2023/07/03 02:02:10.570, True, 0.996, 0.136492
2023/07/03 02:02:11.074, True, 0.994, 0.137713
2023/07/03 02:02:11.570, True, 0.674, 0.137942
2023/07/03 02:02:12.074, True, 0.995, 0.137865
2023/07/03 02:02:12.578, True, 0.663, 0.136187
2023/07/03 02:02:13.073, True, 1.011, 0.136950
2023/07/03 02:02:13.578, True, 0.995, 0.138094
2023/07/03 02:02:14.082, True, 0.995, 0.137102
2023/07/03 02:02:14.578, True, 0.673, 0.138247
2023/07/03 02:02:15.082, True, 0.995, 0.139315
2023/07/03 02:02:15.586, True, 0.995, 0.138552
2023/07/03 02:02:16.082, True, 0.674, 0.137407
2023/07/03 02:02:16.586, True, 0.995, 0.139315
2023/07/03 02:02:17.082, True, 1.011, 0.137102
2023/07/03 02:02:17.586, True, 0.663, 0.137713
2023/07/03 02:02:18.090, True, 0.995, 0.138170
2023/07/03 02:02:18.586, True, 1.013, 0.140459
2023/07/03 02:02:19.090, True, 0.662, 0.135271
2023/07/03 02:02:19.594, True, 0.995, 0.137407
2023/07/03 02:02:20.090, True, 1.011, 0.138628
2023/07/03 02:02:20.594, True, 0.995, 0.135653
2023/07/03 02:02:21.098, True, 0.995, 0.137407
2023/07/03 02:02:21.594, True, 0.674, 0.136263
2023/07/03 02:02:22.098, True, 0.995, 0.140383
2023/07/03 02:02:22.602, True, 0.663, 0.139620
2023/07/03 02:02:23.098, True, 1.011, 0.136339
2023/07/03 02:02:23.602, True, 0.995, 0.136721
2023/07/03 02:02:24.106, True, 0.995, 0.138399
2023/07/03 02:02:24.602, True, 0.674, 0.137560
2023/07/03 02:02:25.106, True, 0.995, 0.137484
2023/07/03 02:02:25.610, True, 0.995, 0.140154
2023/07/03 02:02:26.106, True, 1.011, 0.137407
2023/07/03 02:02:26.610, True, 0.995, 0.137179
2023/07/03 02:02:27.114, True, 0.995, 0.138552
2023/07/03 02:02:27.618, True, 0.663, 0.138018
2023/07/03 02:02:28.114, True, 1.013, 0.137102
2023/07/03 02:02:28.617, True, 0.662, 0.136950
2023/07/03 02:02:29.122, True, 0.995, 0.137407
2023/07/03 02:02:29.618, True, 1.011, 0.137942
2023/07/03 02:02:30.122, True, 0.663, 0.137407
2023/07/03 02:02:30.626, True, 0.995, 0.137942
2023/07/03 02:02:31.122, True, 1.011, 0.135882
2023/07/03 02:02:31.626, True, 0.663, 0.136492
2023/07/03 02:02:32.130, True, 0.995, 0.137484
2023/07/03 02:02:32.625, True, 1.011, 0.138323
2023/07/03 02:02:33.130, True, 0.995, 0.138094
2023/07/03 02:02:33.634, True, 0.663, 0.138552
2023/07/03 02:02:34.129, True, 1.011, 0.137789
2023/07/03 02:02:34.634, True, 0.995, 0.138476
2023/07/03 02:02:35.138, True, 0.995, 0.136110
2023/07/03 02:02:35.633, True, 0.674, 0.137789
2023/07/03 02:02:36.138, True, 0.994, 0.137713
2023/07/03 02:02:36.642, True, 0.995, 0.138399
2023/07/03 02:02:37.138, True, 1.011, 0.139849
2023/07/03 02:02:37.642, True, 0.995, 0.138781
2023/07/03 02:02:38.138, True, 0.674, 0.138476
2023/07/03 02:02:38.642, True, 0.995, 0.136416
2023/07/03 02:02:39.146, True, 0.996, 0.138018
2023/07/03 02:02:39.642, True, 0.673, 0.139315
2023/07/03 02:02:40.146, True, 0.995, 0.134203
2023/07/03 02:02:40.650, True, 0.995, 0.135653
2023/07/03 02:02:41.146, True, 0.674, 0.138018
2023/07/03 02:02:41.650, True, 0.995, 0.136187
2023/07/03 02:02:42.154, True, 0.995, 0.135882
2023/07/03 02:02:42.650, True, 0.675, 0.137865
2023/07/03 02:02:43.154, True, 0.993, 0.136721
2023/07/03 02:02:43.658, True, 0.996, 0.137484
2023/07/03 02:02:44.153, True, 0.674, 0.138170
2023/07/03 02:02:44.658, True, 0.995, 0.136034
2023/07/03 02:02:45.162, True, 0.995, 0.138323
2023/07/03 02:02:45.658, True, 1.011, 0.137026
2023/07/03 02:02:46.162, True, 0.663, 0.136568
2023/07/03 02:02:46.666, True, 0.995, 0.137560
2023/07/03 02:02:47.162, True, 0.674, 0.137865
2023/07/03 02:02:47.666, True, 0.995, 0.138933
2023/07/03 02:02:48.170, True, 0.996, 0.137865
2023/07/03 02:02:48.666, True, 1.009, 0.139086
2023/07/03 02:02:49.170, True, 0.663, 0.137865
2023/07/03 02:02:49.674, True, 0.995, 0.137636
2023/07/03 02:02:50.170, True, 1.011, 0.138857
2023/07/03 02:02:50.674, True, 0.995, 0.138170
2023/07/03 02:02:51.177, True, 0.663, 0.137102
2023/07/03 02:02:51.674, True, 1.011, 0.136873
2023/07/03 02:02:52.178, True, 0.996, 0.137331
2023/07/03 02:02:52.682, True, 0.994, 0.136110
2023/07/03 02:02:53.178, True, 1.011, 0.137865
2023/07/03 02:02:53.682, True, 0.663, 0.136187
2023/07/03 02:02:54.186, True, 0.996, 0.139162
2023/07/03 02:02:54.682, True, 1.010, 0.137484
2023/07/03 02:02:55.186, True, 0.995, 0.136187
2023/07/03 02:02:55.690, True, 0.995, 0.137102
2023/07/03 02:02:56.186, True, 0.674, 0.137484
2023/07/03 02:02:56.690, True, 0.994, 0.137865
2023/07/03 02:02:57.186, True, 1.011, 0.138018
2023/07/03 02:02:57.690, True, 0.663, 0.137407
2023/07/03 02:02:58.194, True, 0.995, 0.138399
2023/07/03 02:02:58.690, True, 1.011, 0.135348
2023/07/03 02:02:59.194, True, 0.996, 0.136873
2023/07/03 02:02:59.697, True, 0.662, 0.137942
2023/07/03 02:03:00.194, True, 1.011, 0.137255
2023/07/03 02:03:00.698, True, 0.996, 0.138094
2023/07/03 02:03:01.202, True, 0.994, 0.136950
2023/07/03 02:03:01.706, True, 0.995, 0.138018
2023/07/03 02:03:02.201, True, 1.011, 0.136950
2023/07/03 02:03:02.706, True, 0.995, 0.135882
2023/07/03 02:03:03.210, True, 0.995, 0.137179
2023/07/03 02:03:03.706, True, 0.674, 0.136568
2023/07/03 02:03:04.209, True, 0.995, 0.136110
2023/07/03 02:03:04.714, True, 0.995, 0.137255
2023/07/03 02:03:05.210, True, 1.011, 0.138857
2023/07/03 02:03:05.713, True, 0.995, 0.136187
2023/07/03 02:03:06.210, True, 0.674, 0.135882
2023/07/03 02:03:06.714, True, 0.996, 0.138399
2023/07/03 02:03:07.217, True, 0.662, 0.138628
2023/07/03 02:03:07.722, True, 0.995, 0.136950
2023/07/03 02:03:08.218, True, 1.011, 0.137179
2023/07/03 02:03:08.721, True, 0.665, 0.135882
2023/07/03 02:03:09.226, True, 0.993, 0.136950
2023/07/03 02:03:09.722, True, 1.011, 0.137942
2023/07/03 02:03:10.226, True, 0.995, 0.138018
2023/07/03 02:03:10.729, True, 0.995, 0.137636
2023/07/03 02:03:11.234, True, 0.663, 0.137713
2023/07/03 02:03:11.730, True, 1.011, 0.138018
2023/07/03 02:03:12.234, True, 0.664, 0.137865
2023/07/03 02:03:12.738, True, 0.994, 0.137026
2023/07/03 02:03:13.234, True, 0.674, 0.136263
2023/07/03 02:03:13.738, True, 0.994, 0.137407
2023/07/03 02:03:14.234, True, 1.011, 0.140230
2023/07/03 02:03:14.738, True, 0.995, 0.136950
2023/07/03 02:03:15.242, True, 0.664, 0.137713
2023/07/03 02:03:15.738, True, 1.011, 0.135805
2023/07/03 02:03:16.242, True, 0.993, 0.138170
2023/07/03 02:03:16.746, True, 0.996, 0.137255
2023/07/03 02:03:17.242, True, 0.674, 0.136873
2023/07/03 02:03:17.746, True, 0.995, 0.137865
2023/07/03 02:03:18.250, True, 0.994, 0.136492
2023/07/03 02:03:18.745, True, 1.012, 0.135119
2023/07/03 02:03:19.249, True, 0.663, 0.139162
2023/07/03 02:03:19.753, True, 0.995, 0.137179
2023/07/03 02:03:20.250, True, 0.673, 0.139010
2023/07/03 02:03:20.754, True, 0.996, 0.137636
2023/07/03 02:03:21.258, True, 0.994, 0.137636
2023/07/03 02:03:21.754, True, 1.011, 0.135271
2023/07/03 02:03:22.258, True, 0.995, 0.137636
2023/07/03 02:03:22.762, True, 0.663, 0.136873
2023/07/03 02:03:23.258, True, 1.012, 0.137789
2023/07/03 02:03:23.762, True, 0.994, 0.137179
2023/07/03 02:03:24.257, True, 1.011, 0.135348
2023/07/03 02:03:24.762, True, 0.996, 0.137789
2023/07/03 02:03:25.266, True, 0.993, 0.135348
2023/07/03 02:03:25.761, True, 0.674, 0.137407
2023/07/03 02:03:26.266, True, 0.995, 0.136492
2023/07/03 02:03:26.770, True, 0.995, 0.136034
2023/07/03 02:03:27.274, True, 0.995, 0.137484
2023/07/03 02:03:27.770, True, 1.011, 0.137407
2023/07/03 02:03:28.274, True, 0.994, 0.137407
2023/07/03 02:03:28.769, True, 0.674, 0.138018
2023/07/03 02:03:29.274, True, 0.995, 0.137102
2023/07/03 02:03:29.777, True, 0.995, 0.137560
2023/07/03 02:03:30.274, True, 1.011, 0.136263
2023/07/03 02:03:30.778, True, 0.663, 0.135958
2023/07/03 02:03:31.282, True, 0.995, 0.135805
2023/07/03 02:03:31.778, True, 1.011, 0.136416
2023/07/03 02:03:32.282, True, 0.995, 0.139467
2023/07/03 02:03:32.786, True, 0.996, 0.135882
2023/07/03 02:03:33.281, True, 0.674, 0.137026
2023/07/03 02:03:33.786, True, 0.994, 0.138323
2023/07/03 02:03:34.290, True, 0.995, 0.137255
2023/07/03 02:03:34.786, True, 0.674, 0.136645
2023/07/03 02:03:35.290, True, 0.995, 0.138399
2023/07/03 02:03:35.794, True, 0.995, 0.137102
2023/07/03 02:03:36.290, True, 0.674, 0.137026
2023/07/03 02:03:36.794, True, 0.995, 0.136110
2023/07/03 02:03:37.298, True, 0.995, 0.136873
2023/07/03 02:03:37.793, True, 1.011, 0.134813
2023/07/03 02:03:38.298, True, 0.663, 0.137713
2023/07/03 02:03:38.801, True, 0.995, 0.138018
2023/07/03 02:03:39.298, True, 1.011, 0.136721
2023/07/03 02:03:39.802, True, 0.664, 0.136645
2023/07/03 02:03:40.306, True, 0.993, 0.136645
2023/07/03 02:03:40.809, True, 0.995, 0.137026
2023/07/03 02:03:41.306, True, 1.011, 0.135653
2023/07/03 02:03:41.810, True, 0.994, 0.137865
2023/07/03 02:03:42.314, True, 0.995, 0.135653
2023/07/03 02:03:42.810, True, 1.011, 0.135653
2023/07/03 02:03:43.314, True, 0.995, 0.135729
2023/07/03 02:03:43.818, True, 0.663, 0.138552
2023/07/03 02:03:44.314, True, 1.011, 0.137636
2023/07/03 02:03:44.818, True, 0.663, 0.138781
2023/07/03 02:03:45.322, True, 0.995, 0.136873
2023/07/03 02:03:45.818, True, 1.011, 0.135729
2023/07/03 02:03:46.322, True, 0.663, 0.136034
2023/07/03 02:03:46.826, True, 0.996, 0.135653
2023/07/03 02:03:47.322, True, 1.010, 0.138323
2023/07/03 02:03:47.825, True, 0.663, 0.137636
2023/07/03 02:03:48.330, True, 0.995, 0.137331
2023/07/03 02:03:48.826, True, 1.011, 0.137636
2023/07/03 02:03:49.329, True, 0.995, 0.135271
2023/07/03 02:03:49.834, True, 0.995, 0.137407
2023/07/03 02:03:50.330, True, 0.674, 0.137026
2023/07/03 02:03:50.834, True, 0.995, 0.137331
2023/07/03 02:03:51.330, True, 1.011, 0.135958
2023/07/03 02:03:51.834, True, 0.995, 0.137789
2023/07/03 02:03:52.338, True, 0.663, 0.135424
2023/07/03 02:03:52.834, True, 1.011, 0.137636
2023/07/03 02:03:53.338, True, 0.995, 0.137942
2023/07/03 02:03:53.842, True, 0.995, 0.138170
2023/07/03 02:03:54.338, True, 0.674, 0.136492
2023/07/03 02:03:54.842, True, 0.995, 0.136568
2023/07/03 02:03:55.346, True, 0.995, 0.137560
2023/07/03 02:03:55.842, True, 0.674, 0.136645
2023/07/03 02:03:56.345, True, 0.995, 0.136339
2023/07/03 02:03:56.850, True, 0.995, 0.135424
2023/07/03 02:03:57.345, True, 0.674, 0.135576
2023/07/03 02:03:57.850, True, 0.995, 0.136645
2023/07/03 02:03:58.354, True, 0.995, 0.136721
2023/07/03 02:03:58.850, True, 0.674, 0.135805
2023/07/03 02:03:59.354, True, 0.995, 0.135653
2023/07/03 02:03:59.850, True, 1.011, 0.136416
2023/07/03 02:04:00.354, True, 0.663, 0.137102
2023/07/03 02:04:00.858, True, 0.995, 0.136950
2023/07/03 02:04:01.354, True, 1.011, 0.136797
2023/07/03 02:04:01.858, True, 0.663, 0.134966
2023/07/03 02:04:02.362, True, 0.995, 0.137179
2023/07/03 02:04:02.858, True, 1.011, 0.136873
2023/07/03 02:04:03.362, True, 0.995, 0.137102
2023/07/03 02:04:03.865, True, 0.663, 0.136873
2023/07/03 02:04:04.362, True, 1.011, 0.137331
2023/07/03 02:04:04.866, True, 0.995, 0.137484
2023/07/03 02:04:05.370, True, 0.995, 0.136492
2023/07/03 02:04:05.865, True, 0.674, 0.136797
2023/07/03 02:04:06.370, True, 0.995, 0.135805
2023/07/03 02:04:06.874, True, 0.995, 0.135042
2023/07/03 02:04:07.370, True, 1.011, 0.135653
2023/07/03 02:04:07.874, True, 0.663, 0.136873
2023/07/03 02:04:08.378, True, 0.995, 0.136721
2023/07/03 02:04:08.874, True, 0.674, 0.133898
2023/07/03 02:04:09.378, True, 0.995, 0.136110
2023/07/03 02:04:09.882, True, 0.663, 0.136568